This demonstration page uses our WeatherBlox Daily Observations layout. Learn more.

Left ArrowRight Arrow

39.92423, -83.80882

Hourly Observations for December 12, 2015

Temp ( °F °C ) Dew Point ( °F °C ) Humidity (%) Winds ( mph kmh ) Pressure ( in mb ) Visibility ( mi km ) Precip ( " mm )
12:56 am 00:56 Cloudy 58 14.4 56 13.3 93 93 SSE 6 9 29.96 1015 10 16.0934 0 0
1:56 am 01:56 Cloudy 59 15 57 13.8 93 93 S 9 15 29.96 1014 10 16.0934 0 0
2:56 am 02:56 Cloudy 61 16.1 58 14.4 90 90 S 10 17 29.97 1015 10 16.0934 0 0
3:56 am 03:56 Cloudy 62 16.6 59 15 90 90 S 9 15 29.97 1015 10 16.0934 0 0
4:56 am 04:56 Cloudy 63 17.2 59 15 87 87 S 12 19 29.97 1015 10 16.0934 0 0
5:56 am 05:56 Mostly Cloudy 62 16.6 59 15 90 90 S 9 15 29.99 1016 10 16.0934 0 0
6:35 am 06:35 Mostly Cloudy 63 17 59 15 88 88 S 10 17 30 1016 10 16.0934 0 0
6:44 am 06:44 Mostly Cloudy 63 17 61 16 94 94 S 10 17 30 1016 10 16.0934 0 0
6:56 am 06:56 Mostly Cloudy 63 17.2 60 15.5 90 90 S 10 17 30.01 1016 10 16.0934 0 0
7:56 am 07:56 Mostly Cloudy 63 17.2 60 15.5 90 90 S 12 19 30.02 1017 10 16.0934 0 0
8:15 am 08:15 Mostly Cloudy 63 17 61 16 94 94 S 12 19 30.03 1017 10 16.0934 0 0
8:49 am 08:49 Mostly Cloudy 63 17 61 16 94 94 S 10 17 30.06 1018 10 16.0934 0 0
8:56 am 08:56 Mostly Cloudy 64 17.7 60 15.5 87 87 S 12 19 30.04 1017 10 16.0934 0 0
9:10 am 09:10 Mostly Cloudy 64 18 61 16 88 88 S 13 20 30.03 1017 10 16.0934 0 0
9:56 am 09:56 Cloudy 65 18.3 61 16.1 87 87 S 10 17 30.05 1018 10 16.0934 0 0
10:56 am 10:56 Cloudy 65 18.3 61 16.1 87 87 S 9 15 30.07 1018 10 16.0934 0 0
11:56 am 11:56 Cloudy 67 19.4 62 16.6 84 84 S 8 13 30.06 1018 10 16.0934 0 0
12:56 pm 12:56 Cloudy 67 19.4 62 16.6 84 84 S 8 13 30.06 1018 10 16.0934 0 0
1:56 pm 13:56 Mostly Cloudy 68 20 62 16.6 81 81 SSW 10 17 30.06 1018 10 16.0934 0 0
2:04 pm 14:04 Mostly Cloudy 70 21 63 17 78 78 S 12 19 30.03 1017 10 16.0934 0 0
2:42 pm 14:42 Mostly Cloudy 70 21 61 16 73 73 S 15 24 30.03 1017 10 16.0934 0 0
2:56 pm 14:56 Mostly Cloudy 69 20.5 61 16.1 76 76 SSW 13 20 30.05 1018 10 16.0934 0 0
3:56 pm 15:56 Cloudy 69 20.5 60 15.5 73 73 S 15 24 30.07 1018 10 16.0934 0 0
4:56 pm 16:56 Cloudy 68 20 60 15.5 75 75 S 9 15 30.09 1019 10 16.0934 0 0
5:56 pm 17:56 Cloudy 67 19.4 59 15 76 76 S 8 13 30.1 1019 10 16.0934 0 0
6:56 pm 18:56 Cloudy 66 18.8 59 15 79 79 S 9 15 30.13 1020 10 16.0934 0 0
7:56 pm 19:56 Cloudy 66 18.8 58 14.4 76 76 S 8 13 30.12 1020 10 16.0934 0 0
8:56 pm 20:56 Partly Cloudy 64 17.7 58 14.4 81 81 SSE 8 13 30.11 1020 10 16.0934 0 0
9:56 pm 21:56 Clear 60 15.5 56 13.3 87 87 SSE 5 7 30.13 1020 10 16.0934 0 0
10:26 pm 22:26 Mostly Cloudy 61 16 55 13 83 83 SSE 5 7 30.15 1021 10 16.0934 0 0
10:43 pm 22:43 Cloudy 59 15 55 13 88 88 SSE 6 9 30.15 1021 10 16.0934 0 0
10:56 pm 22:56 Cloudy 60 15.5 56 13.3 87 87 S 5 7 30.14 1021 10 16.0934 0 0
11:56 pm 23:56 Clear 59 15 57 13.8 93 93 SSE 8 13 30.12 1020 10 16.0934 0 0

Powered by AerisWeather